Time,TemperatureF,DewpointF,PressureIn,WindDirection,WindDirectionDegrees,WindSpeedMPH,WindSpeedGustMPH,Humidity,HourlyPrecipIn,Conditions,Clouds,dailyrainin,SoftwareType,DateUTC
2013-04-22 00:02:00,37.9,22.8,29.32,ESE,118,0.0,0.0,54,0.00,,CLR,0.00,VWS V14.00,2013-04-22 07:02:00,
2013-04-22 00:08:00,37.8,22.6,29.32,ESE,118,0.0,0.0,54,0.00,,CLR,0.00,VWS V14.00,2013-04-22 07:08:00,
2013-04-22 00:14:00,37.4,22.3,29.32,ESE,118,0.0,0.0,54,0.00,,CLR,0.00,VWS V14.00,2013-04-22 07:14:00,
2013-04-22 00:19:00,37.2,22.6,29.32,ESE,118,0.0,0.0,55,0.00,,CLR,0.00,VWS V14.00,2013-04-22 07:19:00,
2013-04-22 00:25:00,36.9,22.2,29.32,ESE,118,0.0,0.0,55,0.00,,CLR,0.00,VWS V14.00,2013-04-22 07:25:00,
2013-04-22 00:30:00,36.7,22.0,29.32,ESE,118,0.0,0.0,55,0.00,,CLR,0.00,VWS V14.00,2013-04-22 07:30:00,
2013-04-22 00:36:00,36.5,21.9,29.32,ESE,118,0.0,0.0,55,0.00,,CLR,0.00,VWS V14.00,2013-04-22 07:36:00,
2013-04-22 00:42:00,36.3,22.1,29.32,ESE,118,0.0,0.0,56,0.00,,CLR,0.00,VWS V14.00,2013-04-22 07:42:00,
2013-04-22 00:48:00,36.1,22.0,29.32,ESE,118,0.0,0.0,56,0.00,,CLR,0.00,VWS V14.00,2013-04-22 07:48:00,
2013-04-22 00:53:00,36.1,22.0,29.32,ESE,118,0.0,0.0,56,0.00,,CLR,0.00,VWS V14.00,2013-04-22 07:53:00,
2013-04-22 00:58:00,36.3,22.1,29.32,ESE,118,0.0,0.0,56,0.00,,CLR,0.00,VWS V14.00,2013-04-22 07:58:00,
2013-04-22 01:04:00,36.3,22.6,29.32,ESE,118,0.0,0.0,57,0.00,,BKN034,0.00,VWS V14.00,2013-04-22 08:04:00,
2013-04-22 01:10:00,36.3,22.6,29.32,ESE,118,0.0,0.0,57,0.00,,BKN034,0.00,VWS V14.00,2013-04-22 08:10:00,
2013-04-22 01:16:00,36.3,22.6,29.32,ESE,118,0.0,0.0,57,0.00,,BKN034,0.00,VWS V14.00,2013-04-22 08:16:00,
2013-04-22 01:21:00,36.7,23.3,29.32,ESE,118,0.0,0.0,58,0.00,,BKN034,0.00,VWS V14.00,2013-04-22 08:21:00,
2013-04-22 01:27:00,36.7,23.3,29.32,ESE,118,0.0,0.0,58,0.00,,BKN034,0.00,VWS V14.00,2013-04-22 08:27:00,
2013-04-22 01:33:00,36.7,23.3,29.32,ESE,118,0.0,0.0,58,0.00,,BKN034,0.00,VWS V14.00,2013-04-22 08:33:00,
2013-04-22 01:38:00,36.5,23.1,29.32,ESE,118,0.0,0.0,58,0.00,,BKN034,0.00,VWS V14.00,2013-04-22 08:38:00,
2013-04-22 01:44:00,36.3,23.0,29.32,ESE,118,0.0,0.0,58,0.00,,BKN034,0.00,VWS V14.00,2013-04-22 08:44:00,
2013-04-22 01:49:00,36.3,23.4,29.32,ESE,118,0.0,0.0,59,0.00,,BKN034,0.00,VWS V14.00,2013-04-22 08:49:00,
2013-04-22 01:55:00,36.1,23.2,29.32,ESE,118,0.0,0.0,59,0.00,,BKN034,0.00,VWS V14.00,2013-04-22 08:55:00,
2013-04-22 02:01:00,36.0,23.0,29.32,ESE,118,0.0,0.0,59,0.00,,CLR,0.00,VWS V14.00,2013-04-22 09:01:00,
2013-04-22 02:06:00,36.0,23.0,29.32,ESE,118,0.0,0.0,59,0.00,,CLR,0.00,VWS V14.00,2013-04-22 09:06:00,
2013-04-22 02:12:00,36.0,23.4,29.32,ESE,118,0.0,0.0,60,0.00,,CLR,0.00,VWS V14.00,2013-04-22 09:12:00,
2013-04-22 02:17:00,36.1,23.6,29.32,ESE,118,0.0,0.0,60,0.00,,CLR,0.00,VWS V14.00,2013-04-22 09:17:00,
2013-04-22 02:23:00,36.1,23.6,29.32,ESE,118,0.0,0.0,60,0.00,,CLR,0.00,VWS V14.00,2013-04-22 09:23:00,
2013-04-22 02:28:00,35.8,23.3,29.32,ESE,118,0.0,0.0,60,0.00,,CLR,0.00,VWS V14.00,2013-04-22 09:28:00,
2013-04-22 02:34:00,35.6,23.1,29.32,ESE,118,0.0,0.0,60,0.00,,CLR,0.00,VWS V14.00,2013-04-22 09:34:00,
2013-04-22 02:40:00,35.4,23.3,29.32,ESE,118,0.0,0.0,61,0.00,,CLR,0.00,VWS V14.00,2013-04-22 09:40:00,
2013-04-22 02:45:00,35.4,23.3,29.32,ESE,118,0.0,0.0,61,0.00,,CLR,0.00,VWS V14.00,2013-04-22 09:45:00,
2013-04-22 02:50:00,35.4,23.3,29.32,ESE,118,0.0,0.0,61,0.00,,CLR,0.00,VWS V14.00,2013-04-22 09:50:00,
2013-04-22 02:56:00,35.4,23.3,29.32,ESE,118,0.0,0.0,61,0.00,,CLR,0.00,VWS V14.00,2013-04-22 09:56:00,
2013-04-22 03:01:00,35.4,23.7,29.32,ESE,118,0.0,0.0,62,0.00,,CLR,0.00,VWS V14.00,2013-04-22 10:01:00,
2013-04-22 03:07:00,35.4,23.7,29.32,ESE,118,0.0,0.0,62,0.00,,CLR,0.00,VWS V14.00,2013-04-22 10:07:00,
2013-04-22 03:12:00,35.6,23.9,29.32,ESE,118,0.0,0.0,62,0.00,,CLR,0.00,VWS V14.00,2013-04-22 10:12:00,
2013-04-22 03:17:00,35.6,23.9,29.32,ESE,118,0.0,0.0,62,0.00,,CLR,0.00,VWS V14.00,2013-04-22 10:17:00,
2013-04-22 03:23:00,35.6,23.9,29.32,ESE,118,0.0,0.0,62,0.00,,CLR,0.00,VWS V14.00,2013-04-22 10:23:00,
2013-04-22 03:29:00,35.6,23.9,29.32,ESE,118,0.0,0.0,62,0.00,,CLR,0.00,VWS V14.00,2013-04-22 10:29:00,
2013-04-22 03:34:00,35.4,24.1,29.32,ESE,118,0.0,0.0,63,0.00,,CLR,0.00,VWS V14.00,2013-04-22 10:34:00,
2013-04-22 03:40:00,35.4,24.1,29.32,ESE,118,0.0,0.0,63,0.00,,CLR,0.00,VWS V14.00,2013-04-22 10:40:00,
2013-04-22 03:46:00,35.4,24.1,29.32,ESE,118,0.0,0.0,63,0.00,,CLR,0.00,VWS V14.00,2013-04-22 10:46:00,
2013-04-22 03:51:00,35.2,23.9,29.32,ESE,118,0.0,0.0,63,0.00,,CLR,0.00,VWS V14.00,2013-04-22 10:51:00,
2013-04-22 03:57:00,35.2,23.9,29.32,ESE,118,0.0,0.0,63,0.00,,CLR,0.00,VWS V14.00,2013-04-22 10:57:00,
2013-04-22 04:02:00,35.1,24.1,29.32,ESE,118,0.0,0.0,64,0.00,,CLR,0.00,VWS V14.00,2013-04-22 11:02:00,
2013-04-22 04:07:00,34.9,24.0,29.32,ESE,118,0.0,0.0,64,0.00,,CLR,0.00,VWS V14.00,2013-04-22 11:07:00,
2013-04-22 04:12:00,34.7,23.8,29.32,ESE,118,0.0,0.0,64,0.00,,CLR,0.00,VWS V14.00,2013-04-22 11:12:00,
2013-04-22 04:18:00,34.5,23.6,29.32,ESE,118,0.0,0.0,64,0.00,,CLR,0.00,VWS V14.00,2013-04-22 11:18:00,
2013-04-22 04:23:00,34.3,23.4,29.32,ESE,118,0.0,0.0,64,0.00,,CLR,0.00,VWS V14.00,2013-04-22 11:23:00,
2013-04-22 04:29:00,34.2,23.3,29.32,ESE,118,0.0,0.0,64,0.00,,CLR,0.00,VWS V14.00,2013-04-22 11:29:00,
2013-04-22 04:35:00,34.2,23.3,29.32,ESE,118,0.0,0.0,64,0.00,,CLR,0.00,VWS V14.00,2013-04-22 11:35:00,
2013-04-22 04:40:00,34.0,23.1,29.32,ESE,118,0.0,0.0,64,0.00,,CLR,0.00,VWS V14.00,2013-04-22 11:40:00,
2013-04-22 04:46:00,34.0,23.1,29.32,ESE,118,0.0,0.0,64,0.00,,CLR,0.00,VWS V14.00,2013-04-22 11:46:00,
2013-04-22 04:51:00,34.0,23.5,29.32,ESE,118,0.0,0.0,65,0.00,,CLR,0.00,VWS V14.00,2013-04-22 11:51:00,
2013-04-22 04:57:00,33.8,23.3,29.32,ESE,118,0.0,0.0,65,0.00,,CLR,0.00,VWS V14.00,2013-04-22 11:57:00,
2013-04-22 05:03:00,33.6,23.1,29.32,ESE,118,0.0,0.0,65,0.00,,CLR,0.00,VWS V14.00,2013-04-22 12:03:00,
2013-04-22 05:08:00,33.4,23.0,29.32,ESE,118,0.0,0.0,65,0.00,,CLR,0.00,VWS V14.00,2013-04-22 12:08:00,
2013-04-22 05:13:00,33.3,22.8,29.32,ESE,118,0.0,0.0,65,0.00,,CLR,0.00,VWS V14.00,2013-04-22 12:13:00,
2013-04-22 05:18:00,33.1,22.6,29.32,ESE,118,0.0,0.0,65,0.00,,CLR,0.00,VWS V14.00,2013-04-22 12:18:00,
2013-04-22 05:23:00,32.9,22.4,29.32,ESE,118,0.0,0.0,65,0.00,,CLR,0.00,VWS V14.00,2013-04-22 12:23:00,
2013-04-22 05:29:00,32.7,22.3,29.32,ESE,118,0.0,0.0,65,0.00,,CLR,0.00,VWS V14.00,2013-04-22 12:29:00,
2013-04-22 05:34:00,32.7,22.3,29.32,ESE,118,0.0,0.0,65,0.00,,CLR,0.00,VWS V14.00,2013-04-22 12:34:00,
2013-04-22 05:39:00,32.7,22.6,29.32,ESE,118,0.0,0.0,66,0.00,,CLR,0.00,VWS V14.00,2013-04-22 12:39:00,
2013-04-22 05:45:00,32.7,22.6,29.32,ESE,118,0.0,0.0,66,0.00,,CLR,0.00,VWS V14.00,2013-04-22 12:45:00,
2013-04-22 05:50:00,32.7,22.6,29.32,ESE,118,0.0,0.0,66,0.00,,CLR,0.00,VWS V14.00,2013-04-22 12:50:00,
2013-04-22 05:56:00,32.9,22.8,29.32,ESE,118,0.0,0.0,66,0.00,,CLR,0.00,VWS V14.00,2013-04-22 12:56:00,
2013-04-22 06:01:00,33.1,23.0,29.32,ESE,118,0.0,0.0,66,0.00,,CLR,0.00,VWS V14.00,2013-04-22 13:01:00,
2013-04-22 06:06:00,33.1,23.0,29.32,ESE,118,0.0,0.0,66,0.00,,CLR,0.00,VWS V14.00,2013-04-22 13:06:00,
2013-04-22 06:11:00,33.1,23.3,29.32,ESE,118,0.0,0.0,67,0.00,,CLR,0.00,VWS V14.00,2013-04-22 13:11:00,
2013-04-22 06:17:00,32.9,22.8,29.32,ESE,118,0.0,0.0,66,0.00,,CLR,0.00,VWS V14.00,2013-04-22 13:17:00,
2013-04-22 06:22:00,32.9,22.8,29.32,ESE,118,0.0,0.0,66,0.00,,CLR,0.00,VWS V14.00,2013-04-22 13:22:00,
2013-04-22 06:27:00,32.9,23.2,29.32,ESE,118,0.0,0.0,67,0.00,,CLR,0.00,VWS V14.00,2013-04-22 13:27:00,
2013-04-22 06:32:00,33.3,23.5,29.32,ESE,118,0.0,0.0,67,0.00,,CLR,0.00,VWS V14.00,2013-04-22 13:32:00,
2013-04-22 06:38:00,33.6,23.9,29.32,ESE,118,0.0,0.0,67,0.00,,CLR,0.00,VWS V14.00,2013-04-22 13:38:00,
2013-04-22 06:43:00,33.6,23.9,29.32,ESE,118,0.0,0.0,67,0.00,,CLR,0.00,VWS V14.00,2013-04-22 13:43:00,
2013-04-22 06:49:00,33.6,23.9,29.32,ESE,118,0.0,0.0,67,0.00,,CLR,0.00,VWS V14.00,2013-04-22 13:49:00,
2013-04-22 06:55:00,33.8,24.0,29.32,ESE,118,0.0,0.0,67,0.00,,CLR,0.00,VWS V14.00,2013-04-22 13:55:00,
2013-04-22 07:00:00,34.0,24.2,29.32,ESE,118,0.0,0.0,67,0.00,,CLR,0.00,VWS V14.00,2013-04-22 14:00:00,
2013-04-22 07:06:00,34.0,24.5,29.32,ESE,118,0.0,0.0,68,0.00,,CLR,0.00,VWS V14.00,2013-04-22 14:06:00,
2013-04-22 07:11:00,34.2,24.7,29.32,ESE,118,0.0,0.0,68,0.00,,CLR,0.00,VWS V14.00,2013-04-22 14:11:00,
2013-04-22 07:17:00,34.3,24.9,29.32,ESE,118,0.0,0.0,68,0.00,,CLR,0.00,VWS V14.00,2013-04-22 14:17:00,
2013-04-22 07:23:00,34.5,25.1,29.32,ESE,118,0.0,0.0,68,0.00,,CLR,0.00,VWS V14.00,2013-04-22 14:23:00,
2013-04-22 07:28:00,35.1,25.6,29.32,ESE,118,0.0,0.0,68,0.00,,CLR,0.00,VWS V14.00,2013-04-22 14:28:00,
2013-04-22 07:34:00,35.4,25.9,29.32,ESE,118,0.0,0.0,68,0.00,,CLR,0.00,VWS V14.00,2013-04-22 14:34:00,
2013-04-22 07:39:00,35.6,26.1,29.32,ESE,118,0.0,0.0,68,0.00,,CLR,0.00,VWS V14.00,2013-04-22 14:39:00,
2013-04-22 07:45:00,36.1,26.6,29.32,ESE,118,0.0,0.0,68,0.00,,CLR,0.00,VWS V14.00,2013-04-22 14:45:00,
2013-04-22 07:51:00,36.7,27.5,29.32,ESE,118,0.0,0.0,69,0.00,,CLR,0.00,VWS V14.00,2013-04-22 14:51:00,
2013-04-22 07:56:00,37.0,27.8,29.32,ESE,118,0.0,0.0,69,0.00,,CLR,0.00,VWS V14.00,2013-04-22 14:56:00,
2013-04-22 08:02:00,37.8,28.5,29.32,ESE,118,0.0,0.0,69,0.00,,,0.00,VWS V14.00,2013-04-22 15:02:00,
2013-04-22 08:07:00,38.5,29.2,29.32,ESE,118,0.0,0.0,69,0.00,,,0.00,VWS V14.00,2013-04-22 15:07:00,
2013-04-22 08:13:00,39.0,30.1,29.32,ESE,118,2.7,2.7,70,0.00,,,0.00,VWS V14.00,2013-04-22 15:13:00,
2013-04-22 08:18:00,39.6,30.2,29.32,ESE,118,0.0,0.0,69,0.00,,,0.00,VWS V14.00,2013-04-22 15:18:00,
2013-04-22 08:24:00,39.9,30.6,29.32,ESE,118,0.0,0.0,69,0.00,,,0.00,VWS V14.00,2013-04-22 15:24:00,
2013-04-22 08:30:00,40.3,31.3,29.32,ESE,118,0.0,2.2,70,0.00,,,0.00,VWS V14.00,2013-04-22 15:30:00,
2013-04-22 08:35:00,40.6,31.6,29.32,ESE,118,0.0,0.0,70,0.00,,,0.00,VWS V14.00,2013-04-22 15:35:00,
2013-04-22 08:41:00,40.8,31.8,29.32,ESE,118,2.7,2.7,70,0.00,,,0.00,VWS V14.00,2013-04-22 15:41:00,
2013-04-22 08:47:00,41.0,31.6,29.32,ESE,118,2.2,2.2,69,0.00,,,0.00,VWS V14.00,2013-04-22 15:47:00,
2013-04-22 08:52:00,41.0,32.0,29.32,ESE,118,0.0,0.0,70,0.00,,,0.00,VWS V14.00,2013-04-22 15:52:00,
2013-04-22 08:58:00,41.4,32.3,29.32,ESE,118,0.0,0.0,70,0.00,,,0.00,VWS V14.00,2013-04-22 15:58:00,
2013-04-22 09:03:00,41.7,32.7,29.32,WSW,240,2.2,2.2,70,0.00,,,0.00,VWS V14.00,2013-04-22 16:03:00,
2013-04-22 09:09:00,42.1,33.0,29.32,NNW,329,2.7,3.1,70,0.00,,,0.00,VWS V14.00,2013-04-22 16:09:00,
2013-04-22 09:15:00,42.3,33.2,29.32,SW,219,0.0,3.1,70,0.00,,,0.00,VWS V14.00,2013-04-22 16:15:00,
2013-04-22 09:20:00,42.4,33.4,29.32,West,278,2.7,2.7,70,0.00,,,0.00,VWS V14.00,2013-04-22 16:20:00,
2013-04-22 09:26:00,42.8,33.7,29.32,West,279,0.0,4.0,70,0.00,,,0.00,VWS V14.00,2013-04-22 16:26:00,
2013-04-22 09:31:00,43.0,33.9,29.32,SW,227,2.7,3.1,70,0.00,,,0.00,VWS V14.00,2013-04-22 16:31:00,
2013-04-22 09:37:00,43.0,33.9,29.32,WSW,248,0.0,0.0,70,0.00,,,0.00,VWS V14.00,2013-04-22 16:37:00,
2013-04-22 09:43:00,43.3,34.2,29.32,West,281,0.0,0.0,70,0.00,,,0.00,VWS V14.00,2013-04-22 16:43:00,
2013-04-22 09:48:00,43.7,34.6,29.32,West,281,3.6,4.0,70,0.00,,,0.00,VWS V14.00,2013-04-22 16:48:00,
2013-04-22 09:54:00,44.1,34.9,29.32,West,275,2.7,2.7,70,0.00,,,0.00,VWS V14.00,2013-04-22 16:54:00,
2013-04-22 09:59:00,44.4,34.9,29.32,SW,222,3.1,3.1,69,0.00,,,0.00,VWS V14.00,2013-04-22 16:59:00,
2013-04-22 10:05:00,45.1,35.6,29.32,WSW,244,2.2,3.1,69,0.00,,SCT004,0.00,VWS V14.00,2013-04-22 17:05:00,
2013-04-22 10:11:00,45.9,36.3,29.32,SW,215,0.0,3.1,69,0.00,,SCT004,0.00,VWS V14.00,2013-04-22 17:11:00,
2013-04-22 10:16:00,46.2,36.6,29.32,SSW,209,0.0,2.2,69,0.00,,SCT004,0.00,VWS V14.00,2013-04-22 17:16:00,
2013-04-22 10:22:00,46.9,36.9,29.32,SSW,209,2.7,4.0,68,0.00,,SCT004,0.00,VWS V14.00,2013-04-22 17:22:00,
2013-04-22 10:27:00,47.3,36.9,29.32,West,271,0.0,3.1,67,0.00,,SCT004,0.00,VWS V14.00,2013-04-22 17:27:00,
2013-04-22 10:33:00,47.7,37.3,29.32,ESE,122,0.0,0.0,67,0.00,,SCT004,0.00,VWS V14.00,2013-04-22 17:33:00,
2013-04-22 10:39:00,48.6,37.7,29.32,NW,316,3.1,4.5,66,0.00,,SCT004,0.00,VWS V14.00,2013-04-22 17:39:00,
2013-04-22 10:44:00,49.5,37.8,29.32,South,182,2.7,3.6,64,0.00,,SCT004,0.00,VWS V14.00,2013-04-22 17:44:00,
2013-04-22 10:50:00,50.5,37.6,29.32,NW,319,3.6,3.6,61,0.00,,SCT004,0.00,VWS V14.00,2013-04-22 17:50:00,
2013-04-22 10:55:00,51.6,36.9,29.32,NW,310,4.0,5.4,57,0.00,,SCT004,0.00,VWS V14.00,2013-04-22 17:55:00,
2013-04-22 11:01:00,52.3,33.8,29.32,SW,219,4.9,4.9,49,0.00,,CLR,0.00,VWS V14.00,2013-04-22 18:01:00,
2013-04-22 11:07:00,53.1,28.1,29.32,NW,316,4.0,4.0,38,0.00,,CLR,0.00,VWS V14.00,2013-04-22 18:07:00,
2013-04-22 11:12:00,53.6,26.6,29.32,WNW,301,3.1,6.3,35,0.00,,CLR,0.00,VWS V14.00,2013-04-22 18:12:00,
2013-04-22 11:18:00,54.5,27.4,29.32,WNW,282,0.0,4.0,35,0.00,,CLR,0.00,VWS V14.00,2013-04-22 18:18:00,
2013-04-22 11:23:00,55.4,26.0,29.32,North,353,3.6,4.9,32,0.00,,CLR,0.00,VWS V14.00,2013-04-22 18:23:00,
2013-04-22 11:29:00,55.9,25.0,29.32,NNW,335,4.9,5.4,30,0.00,,CLR,0.00,VWS V14.00,2013-04-22 18:29:00,
2013-04-22 11:35:00,56.5,23.8,29.32,SSE,157,3.1,3.1,28,0.00,,CLR,0.00,VWS V14.00,2013-04-22 18:35:00,
2013-04-22 11:40:00,56.7,24.0,29.32,WNW,283,4.9,4.9,28,0.00,,CLR,0.00,VWS V14.00,2013-04-22 18:40:00,
2013-04-22 11:46:00,57.0,23.4,29.32,SW,221,3.1,3.6,27,0.00,,CLR,0.00,VWS V14.00,2013-04-22 18:46:00,
2013-04-22 11:51:00,57.2,23.5,29.32,SW,235,5.4,5.8,27,0.00,,CLR,0.00,VWS V14.00,2013-04-22 18:51:00,
2013-04-22 11:57:00,57.4,23.7,29.32,South,190,0.0,2.7,27,0.00,,CLR,0.00,VWS V14.00,2013-04-22 18:57:00,
2013-04-22 12:03:00,57.9,23.3,29.32,WNW,298,2.7,4.0,26,0.00,,CLR,0.00,VWS V14.00,2013-04-22 19:03:00,
2013-04-22 12:08:00,58.3,23.6,29.32,North,357,2.7,4.0,26,0.00,,CLR,0.00,VWS V14.00,2013-04-22 19:08:00,
2013-04-22 12:14:00,59.0,23.2,29.32,NW,314,5.4,5.4,25,0.00,,CLR,0.00,VWS V14.00,2013-04-22 19:14:00,
2013-04-22 12:19:00,59.5,23.7,29.32,NNE,29,4.0,6.3,25,0.00,,CLR,0.00,VWS V14.00,2013-04-22 19:19:00,
2013-04-22 12:24:00,60.3,24.3,29.32,NNW,345,2.7,4.0,25,0.00,,CLR,0.00,VWS V14.00,2013-04-22 19:24:00,
2013-04-22 12:29:00,60.6,23.6,29.32,NW,313,2.2,4.9,24,0.00,,CLR,0.00,VWS V14.00,2013-04-22 19:29:00,
2013-04-22 12:35:00,60.8,23.8,29.32,NNE,17,3.1,4.0,24,0.00,,CLR,0.00,VWS V14.00,2013-04-22 19:35:00,
2013-04-22 12:40:00,60.8,23.8,29.32,West,260,2.2,3.1,24,0.00,,CLR,0.00,VWS V14.00,2013-04-22 19:40:00,
2013-04-22 12:45:00,60.8,23.8,29.32,SSW,210,2.7,3.6,24,0.00,,CLR,0.00,VWS V14.00,2013-04-22 19:45:00,
2013-04-22 12:50:00,60.8,23.8,29.32,NW,322,2.2,4.9,24,0.00,,CLR,0.00,VWS V14.00,2013-04-22 19:50:00,
2013-04-22 12:56:00,60.8,23.8,29.32,WSW,240,2.7,4.5,24,0.00,,CLR,0.00,VWS V14.00,2013-04-22 19:56:00,
2013-04-22 13:01:00,61.0,24.0,29.32,SSE,157,4.0,4.9,24,0.00,,CLR,0.00,VWS V14.00,2013-04-22 20:01:00,
2013-04-22 13:06:00,61.5,24.4,29.32,NW,306,2.7,4.9,24,0.00,,CLR,0.00,VWS V14.00,2013-04-22 20:06:00,
2013-04-22 13:11:00,61.3,24.3,29.32,NNW,345,4.0,4.0,24,0.00,,CLR,0.00,VWS V14.00,2013-04-22 20:11:00,
2013-04-22 13:17:00,61.0,24.0,29.32,WNW,283,5.4,5.4,24,0.00,,CLR,0.00,VWS V14.00,2013-04-22 20:17:00,
2013-04-22 13:22:00,61.2,24.1,29.32,ENE,58,0.0,3.1,24,0.00,,CLR,0.00,VWS V14.00,2013-04-22 20:22:00,
2013-04-22 13:28:00,61.7,21.4,29.32,SSW,211,2.7,3.6,21,0.00,,CLR,0.00,VWS V14.00,2013-04-22 20:28:00,
2013-04-22 13:34:00,61.7,21.4,29.32,West,275,6.3,6.3,21,0.00,,CLR,0.00,VWS V14.00,2013-04-22 20:34:00,
2013-04-22 13:39:00,62.1,21.7,29.32,SW,216,2.2,6.3,21,0.00,,CLR,0.00,VWS V14.00,2013-04-22 20:39:00,
2013-04-22 13:45:00,62.4,25.2,29.32,WNW,294,3.1,5.4,24,0.00,,CLR,0.00,VWS V14.00,2013-04-22 20:45:00,
2013-04-22 13:50:00,62.4,22.0,29.32,NW,326,2.2,7.2,21,0.00,,CLR,0.00,VWS V14.00,2013-04-22 20:50:00,
2013-04-22 13:56:00,62.2,21.9,29.32,West,262,5.4,5.4,21,0.00,,CLR,0.00,VWS V14.00,2013-04-22 20:56:00,
2013-04-22 14:02:00,61.7,21.4,29.32,WNW,286,0.0,2.2,21,0.00,,CLR,0.00,VWS V14.00,2013-04-22 21:02:00,
2013-04-22 14:07:00,61.3,21.1,29.32,NW,320,4.9,6.3,21,0.00,,CLR,0.00,VWS V14.00,2013-04-22 21:07:00,
2013-04-22 14:13:00,61.0,20.8,29.32,South,179,5.8,5.8,21,0.00,,CLR,0.00,VWS V14.00,2013-04-22 21:13:00,
2013-04-22 14:18:00,61.3,21.1,29.32,South,180,3.1,4.0,21,0.00,,CLR,0.00,VWS V14.00,2013-04-22 21:18:00,
2013-04-22 14:24:00,61.3,21.1,29.32,NNW,341,5.4,8.1,21,0.00,,CLR,0.00,VWS V14.00,2013-04-22 21:24:00,
2013-04-22 14:29:00,61.3,21.1,29.32,SSE,157,3.6,4.9,21,0.00,,CLR,0.00,VWS V14.00,2013-04-22 21:29:00,
2013-04-22 14:35:00,61.7,21.4,29.32,WNW,291,4.9,4.9,21,0.00,,CLR,0.00,VWS V14.00,2013-04-22 21:35:00,
2013-04-22 14:40:00,61.3,21.1,29.32,NW,309,2.7,4.0,21,0.00,,CLR,0.00,VWS V14.00,2013-04-22 21:40:00,
2013-04-22 14:45:00,61.3,21.1,29.32,WSW,256,2.7,4.9,21,0.00,,CLR,0.00,VWS V14.00,2013-04-22 21:45:00,
2013-04-22 14:51:00,61.0,18.5,29.32,NNW,331,5.4,7.6,19,0.00,,CLR,0.00,VWS V14.00,2013-04-22 21:51:00,
2013-04-22 14:56:00,60.8,18.3,29.32,NNE,20,6.3,6.3,19,0.00,,CLR,0.00,VWS V14.00,2013-04-22 21:56:00,
2013-04-22 15:02:00,61.0,20.8,29.32,North,0,2.7,3.6,21,0.00,,CLR,0.00,VWS V14.00,2013-04-22 22:02:00,
2013-04-22 15:07:00,60.8,18.3,29.32,NNE,24,3.6,6.3,19,0.00,,CLR,0.00,VWS V14.00,2013-04-22 22:07:00,
2013-04-22 15:13:00,61.0,18.5,29.32,North,357,3.6,4.0,19,0.00,,CLR,0.00,VWS V14.00,2013-04-22 22:13:00,
2013-04-22 15:19:00,61.0,18.5,29.32,WNW,297,2.7,6.3,19,0.00,,CLR,0.00,VWS V14.00,2013-04-22 22:19:00,
2013-04-22 15:24:00,61.2,18.6,29.32,SW,230,3.6,6.7,19,0.00,,CLR,0.00,VWS V14.00,2013-04-22 22:24:00,
2013-04-22 15:29:00,61.5,18.9,29.32,North,357,3.1,5.8,19,0.00,,CLR,0.00,VWS V14.00,2013-04-22 22:29:00,
2013-04-22 15:34:00,61.3,18.8,29.32,South,171,3.1,5.4,19,0.00,,CLR,0.00,VWS V14.00,2013-04-22 22:34:00,
2013-04-22 15:40:00,61.7,19.0,29.32,NNW,329,2.7,6.3,19,0.00,,CLR,0.00,VWS V14.00,2013-04-22 22:40:00,
2013-04-22 15:46:00,61.3,18.8,29.32,NNE,20,3.1,4.9,19,0.00,,CLR,0.00,VWS V14.00,2013-04-22 22:46:00,
2013-04-22 15:52:00,61.3,18.8,29.32,SSW,204,3.1,4.9,19,0.00,,CLR,0.00,VWS V14.00,2013-04-22 22:52:00,
2013-04-22 15:58:00,61.3,18.8,29.32,SW,222,4.0,4.9,19,0.00,,CLR,0.00,VWS V14.00,2013-04-22 22:58:00,
2013-04-22 16:03:00,61.5,18.9,29.32,West,278,4.0,7.2,19,0.00,,CLR,0.00,VWS V14.00,2013-04-22 23:03:00,
2013-04-22 16:09:00,61.2,18.6,29.32,WNW,299,5.8,5.8,19,0.00,,CLR,0.00,VWS V14.00,2013-04-22 23:09:00,
2013-04-22 16:15:00,61.0,18.5,29.32,NW,308,2.7,5.4,19,0.00,,CLR,0.00,VWS V14.00,2013-04-22 23:15:00,
2013-04-22 16:21:00,61.0,18.5,29.32,NE,49,3.6,4.0,19,0.00,,CLR,0.00,VWS V14.00,2013-04-22 23:21:00,
2013-04-22 16:27:00,61.0,18.5,29.32,North,353,5.8,6.3,19,0.00,,CLR,0.00,VWS V14.00,2013-04-22 23:27:00,
2013-04-22 16:32:00,60.8,18.3,29.32,SW,230,8.7,8.7,19,0.00,,CLR,0.00,VWS V14.00,2013-04-22 23:32:00,
2013-04-22 16:37:00,60.8,18.3,29.32,SSW,200,2.2,6.3,19,0.00,,CLR,0.00,VWS V14.00,2013-04-22 23:37:00,
2013-04-22 16:43:00,60.8,18.3,29.32,South,187,4.0,4.0,19,0.00,,CLR,0.00,VWS V14.00,2013-04-22 23:43:00,
2013-04-22 16:48:00,60.8,18.3,29.32,SW,232,5.4,6.3,19,0.00,,CLR,0.00,VWS V14.00,2013-04-22 23:48:00,
2013-04-22 16:54:00,60.6,18.2,29.32,SW,219,2.2,5.4,19,0.00,,CLR,0.00,VWS V14.00,2013-04-22 23:54:00,
2013-04-22 16:59:00,60.4,18.0,29.32,WNW,298,2.2,4.5,19,0.00,,CLR,0.00,VWS V14.00,2013-04-22 23:59:00,
2013-04-22 17:04:00,60.4,18.0,29.32,SSW,200,2.7,4.0,19,0.00,,CLR,0.00,VWS V14.00,2013-04-23 00:04:00,
2013-04-22 17:09:00,60.3,17.9,29.32,WNW,282,3.6,5.8,19,0.00,,CLR,0.00,VWS V14.00,2013-04-23 00:09:00,
2013-04-22 17:15:00,59.9,17.6,29.32,NNW,333,2.7,4.9,19,0.00,,CLR,0.00,VWS V14.00,2013-04-23 00:15:00,
2013-04-22 17:20:00,59.7,17.4,29.32,NNW,330,5.8,6.3,19,0.00,,CLR,0.00,VWS V14.00,2013-04-23 00:20:00,
2013-04-22 17:25:00,59.7,17.4,29.32,NE,41,5.4,8.1,19,0.00,,CLR,0.00,VWS V14.00,2013-04-23 00:25:00,
2013-04-22 17:31:00,59.4,17.1,29.32,NNW,333,2.7,4.0,19,0.00,,CLR,0.00,VWS V14.00,2013-04-23 00:31:00,
2013-04-22 17:36:00,59.5,17.3,29.32,WNW,286,2.2,3.1,19,0.00,,CLR,0.00,VWS V14.00,2013-04-23 00:36:00,
2013-04-22 17:42:00,59.5,17.3,29.32,WSW,258,3.6,5.4,19,0.00,,CLR,0.00,VWS V14.00,2013-04-23 00:42:00,
2013-04-22 17:48:00,59.4,17.1,29.32,NNW,338,0.0,8.1,19,0.00,,CLR,0.00,VWS V14.00,2013-04-23 00:48:00,
2013-04-22 17:53:00,59.2,17.0,29.32,NW,319,4.0,6.3,19,0.00,,CLR,0.00,VWS V14.00,2013-04-23 00:53:00,
2013-04-22 17:59:00,58.8,16.7,29.32,NW,307,4.0,6.3,19,0.00,,CLR,0.00,VWS V14.00,2013-04-23 00:59:00,
2013-04-22 18:04:00,58.6,16.5,29.32,NW,308,4.0,4.9,19,0.00,,CLR,0.00,VWS V14.00,2013-04-23 01:04:00,
2013-04-22 18:10:00,58.6,16.5,29.32,NW,317,3.6,3.6,19,0.00,,CLR,0.00,VWS V14.00,2013-04-23 01:10:00,
2013-04-22 18:15:00,58.6,16.5,29.32,WNW,287,0.0,5.4,19,0.00,,CLR,0.00,VWS V14.00,2013-04-23 01:15:00,
2013-04-22 18:21:00,58.6,16.5,29.32,West,281,2.2,4.9,19,0.00,,CLR,0.00,VWS V14.00,2013-04-23 01:21:00,
2013-04-22 18:27:00,58.6,16.5,29.32,NNW,345,3.1,5.4,19,0.00,,CLR,0.00,VWS V14.00,2013-04-23 01:27:00,
2013-04-22 18:32:00,58.5,16.4,29.32,NNE,22,2.7,4.0,19,0.00,,CLR,0.00,VWS V14.00,2013-04-23 01:32:00,
2013-04-22 18:38:00,58.3,16.2,29.32,NW,309,2.7,3.6,19,0.00,,CLR,0.00,VWS V14.00,2013-04-23 01:38:00,
2013-04-22 18:44:00,58.5,16.4,29.32,NNW,342,4.0,5.4,19,0.00,,CLR,0.00,VWS V14.00,2013-04-23 01:44:00,
2013-04-22 18:49:00,58.5,16.4,29.32,NW,320,2.2,4.5,19,0.00,,CLR,0.00,VWS V14.00,2013-04-23 01:49:00,
2013-04-22 18:54:00,58.5,16.4,29.32,West,280,4.9,6.3,19,0.00,,CLR,0.00,VWS V14.00,2013-04-23 01:54:00,
2013-04-22 19:00:00,57.9,15.9,29.32,NNW,337,2.7,5.4,19,0.00,,CLR,0.00,VWS V14.00,2013-04-23 02:00:00,
2013-04-22 19:05:00,57.4,15.5,29.32,NNW,348,2.7,4.9,19,0.00,,CLR,0.00,VWS V14.00,2013-04-23 02:05:00,
2013-04-22 19:10:00,56.7,16.1,29.32,NW,306,5.4,5.4,20,0.00,,CLR,0.00,VWS V14.00,2013-04-23 02:10:00,
2013-04-22 19:16:00,56.1,15.6,29.32,SSW,206,0.0,0.0,20,0.00,,CLR,0.00,VWS V14.00,2013-04-23 02:16:00,
2013-04-22 19:21:00,55.6,15.2,29.32,West,261,2.7,4.0,20,0.00,,CLR,0.00,VWS V14.00,2013-04-23 02:21:00,
2013-04-22 19:27:00,55.0,14.7,29.32,WNW,303,2.7,3.6,20,0.00,,CLR,0.00,VWS V14.00,2013-04-23 02:27:00,
2013-04-22 19:33:00,54.5,14.3,29.32,West,280,0.0,0.0,20,0.00,,CLR,0.00,VWS V14.00,2013-04-23 02:33:00,
2013-04-22 19:38:00,54.0,13.8,29.32,NW,321,3.1,3.1,20,0.00,,CLR,0.00,VWS V14.00,2013-04-23 02:38:00,
2013-04-22 19:44:00,53.4,14.5,29.32,NNW,335,0.0,0.0,21,0.00,,CLR,0.00,VWS V14.00,2013-04-23 02:44:00,
2013-04-22 19:49:00,52.9,14.0,29.32,West,274,0.0,0.0,21,0.00,,CLR,0.00,VWS V14.00,2013-04-23 02:49:00,
2013-04-22 19:55:00,52.3,13.6,29.32,West,274,0.0,0.0,21,0.00,,CLR,0.00,VWS V14.00,2013-04-23 02:55:00,
2013-04-22 20:01:00,51.6,13.0,29.32,NW,314,2.2,2.7,21,0.00,,CLR,0.00,VWS V14.00,2013-04-23 03:01:00,
2013-04-22 20:06:00,51.3,12.7,29.32,NNW,344,0.0,0.0,21,0.00,,CLR,0.00,VWS V14.00,2013-04-23 03:06:00,
2013-04-22 20:12:00,50.7,12.2,29.32,NNW,344,0.0,0.0,21,0.00,,CLR,0.00,VWS V14.00,2013-04-23 03:12:00,
2013-04-22 20:17:00,50.2,11.8,29.32,NNW,344,0.0,0.0,21,0.00,,CLR,0.00,VWS V14.00,2013-04-23 03:17:00,
2013-04-22 20:23:00,49.5,11.2,29.32,NNW,342,0.0,0.0,21,0.00,,CLR,0.00,VWS V14.00,2013-04-23 03:23:00,
2013-04-22 20:29:00,48.7,10.6,29.32,NNW,342,0.0,0.0,21,0.00,,CLR,0.00,VWS V14.00,2013-04-23 03:29:00,
2013-04-22 20:34:00,48.2,10.1,29.32,NNW,342,0.0,0.0,21,0.00,,CLR,0.00,VWS V14.00,2013-04-23 03:34:00,
2013-04-22 20:40:00,47.5,10.6,29.32,NNW,342,0.0,0.0,22,0.00,,CLR,0.00,VWS V14.00,2013-04-23 03:40:00,
2013-04-22 20:45:00,46.8,9.9,29.32,NNW,342,0.0,0.0,22,0.00,,CLR,0.00,VWS V14.00,2013-04-23 03:45:00,
2013-04-22 20:51:00,46.2,9.5,29.32,NNW,342,0.0,0.0,22,0.00,,CLR,0.00,VWS V14.00,2013-04-23 03:51:00,
2013-04-22 20:57:00,45.3,8.7,29.32,NNW,342,0.0,0.0,22,0.00,,CLR,0.00,VWS V14.00,2013-04-23 03:57:00,
2013-04-22 21:01:00,45.1,8.6,29.32,NNW,342,0.0,0.0,22,0.00,,CLR,0.00,VWS V14.00,2013-04-23 04:01:00,
2013-04-22 21:02:00,45.0,8.4,29.32,NNW,342,0.0,0.0,22,0.00,,CLR,0.00,VWS V14.00,2013-04-23 04:02:00,
2013-04-22 21:06:00,44.6,8.1,29.32,NNW,342,0.0,0.0,22,0.00,,CLR,0.00,VWS V14.00,2013-04-23 04:06:00,
2013-04-22 21:09:00,44.4,8.9,29.32,NNW,342,0.0,0.0,23,0.00,,CLR,0.00,VWS V14.00,2013-04-23 04:09:00,
2013-04-22 21:15:00,43.9,10.4,29.32,NNW,342,0.0,0.0,25,0.00,,CLR,0.00,VWS V14.00,2013-04-23 04:15:00,
2013-04-22 21:20:00,43.7,10.2,29.32,NNW,342,0.0,0.0,25,0.00,,CLR,0.00,VWS V14.00,2013-04-23 04:20:00,
2013-04-22 21:26:00,43.5,10.0,29.32,East,86,0.0,0.0,25,0.00,,CLR,0.00,VWS V14.00,2013-04-23 04:26:00,
2013-04-22 21:32:00,43.2,9.7,29.32,East,86,0.0,0.0,25,0.00,,CLR,0.00,VWS V14.00,2013-04-23 04:32:00,
2013-04-22 21:37:00,43.0,9.6,29.32,East,86,0.0,0.0,25,0.00,,CLR,0.00,VWS V14.00,2013-04-23 04:37:00,
2013-04-22 21:43:00,42.6,11.8,29.32,East,86,0.0,0.0,28,0.00,,CLR,0.00,VWS V14.00,2013-04-23 04:43:00,
2013-04-22 21:48:00,42.4,11.7,29.32,East,86,0.0,0.0,28,0.00,,CLR,0.00,VWS V14.00,2013-04-23 04:48:00,
2013-04-22 21:54:00,42.3,11.5,29.32,East,86,0.0,0.0,28,0.00,,CLR,0.00,VWS V14.00,2013-04-23 04:54:00,
2013-04-22 21:59:00,42.1,11.3,29.32,East,86,0.0,0.0,28,0.00,,CLR,0.00,VWS V14.00,2013-04-23 04:59:00,
2013-04-22 22:05:00,41.9,11.2,29.32,East,86,0.0,0.0,28,0.00,,CLR,0.00,VWS V14.00,2013-04-23 05:05:00,
2013-04-22 22:10:00,41.7,11.8,29.32,East,86,0.0,0.0,29,0.00,,CLR,0.00,VWS V14.00,2013-04-23 05:10:00,
2013-04-22 22:16:00,41.4,11.5,29.32,East,86,0.0,0.0,29,0.00,,CLR,0.00,VWS V14.00,2013-04-23 05:16:00,
2013-04-22 22:21:00,41.2,11.4,29.32,East,86,0.0,0.0,29,0.00,,CLR,0.00,VWS V14.00,2013-04-23 05:21:00,
2013-04-22 22:26:00,40.8,11.8,29.32,East,86,0.0,0.0,30,0.00,,CLR,0.00,VWS V14.00,2013-04-23 05:26:00,
2013-04-22 22:32:00,40.5,12.2,29.32,East,86,0.0,0.0,31,0.00,,CLR,0.00,VWS V14.00,2013-04-23 05:32:00,
2013-04-22 22:37:00,40.3,12.1,29.32,East,86,0.0,0.0,31,0.00,,CLR,0.00,VWS V14.00,2013-04-23 05:37:00,
2013-04-22 22:43:00,40.1,12.6,29.32,East,86,0.0,0.0,32,0.00,,CLR,0.00,VWS V14.00,2013-04-23 05:43:00,
2013-04-22 22:49:00,39.9,12.5,29.32,East,86,0.0,0.0,32,0.00,,CLR,0.00,VWS V14.00,2013-04-23 05:49:00,
2013-04-22 22:55:00,39.6,12.9,29.32,East,86,0.0,0.0,33,0.00,,CLR,0.00,VWS V14.00,2013-04-23 05:55:00,
2013-04-22 23:00:00,39.2,12.5,29.32,East,86,0.0,0.0,33,0.00,,CLR,0.00,VWS V14.00,2013-04-23 06:00:00,
2013-04-22 23:05:00,39.0,13.7,29.32,East,86,0.0,0.0,35,0.00,,CLR,0.00,VWS V14.00,2013-04-23 06:05:00,
2013-04-22 23:11:00,39.0,13.7,29.32,East,86,0.0,0.0,35,0.00,,CLR,0.00,VWS V14.00,2013-04-23 06:11:00,
2013-04-22 23:17:00,38.8,14.2,29.32,East,86,0.0,0.0,36,0.00,,CLR,0.00,VWS V14.00,2013-04-23 06:17:00,
2013-04-22 23:22:00,38.7,14.0,29.32,East,86,0.0,0.0,36,0.00,,CLR,0.00,VWS V14.00,2013-04-23 06:22:00,
2013-04-22 23:28:00,38.5,14.5,29.32,East,86,0.0,0.0,37,0.00,,CLR,0.00,VWS V14.00,2013-04-23 06:28:00,
2013-04-22 23:33:00,38.3,14.9,29.32,East,86,0.0,0.0,38,0.00,,CLR,0.00,VWS V14.00,2013-04-23 06:33:00,
2013-04-22 23:39:00,38.1,15.4,29.32,East,86,0.0,0.0,39,0.00,,CLR,0.00,VWS V14.00,2013-04-23 06:39:00,
2013-04-22 23:44:00,37.9,15.2,29.32,East,86,0.0,0.0,39,0.00,,CLR,0.00,VWS V14.00,2013-04-23 06:44:00,
2013-04-22 23:50:00,37.8,15.0,29.32,East,86,0.0,0.0,39,0.00,,CLR,0.00,VWS V14.00,2013-04-23 06:50:00,
2013-04-22 23:56:00,37.6,14.9,29.32,East,86,0.0,0.0,39,0.00,,CLR,0.00,VWS V14.00,2013-04-23 06:56:00,